Time,TemperatureF,DewpointF,PressureIn,WindDirection,WindDirectionDegrees,WindSpeedMPH,WindSpeedGustMPH,Humidity,HourlyPrecipIn,Conditions,Clouds,dailyrainin,SoftwareType,DateUTC
2013-10-11 00:00:00,76.0,70.8,30.01,SSW,192,2.0,2.0,84,0.00,,,0.00,Wunderground v.1.15,2013-10-11 04:00:00,
2013-10-11 00:05:00,75.8,70.6,30.01,SSW,192,1.0,19.0,84,0.00,,,0.00,Wunderground v.1.15,2013-10-11 04:05:00,
2013-10-11 00:10:00,75.7,70.5,30.02,SSW,192,1.0,1.0,84,0.00,,,0.00,Wunderground v.1.15,2013-10-11 04:10:00,
2013-10-11 00:15:00,75.7,70.9,30.01,SSW,192,0.0,19.0,85,0.00,,,0.00,Wunderground v.1.15,2013-10-11 04:15:00,
2013-10-11 00:20:00,75.8,70.6,30.01,SSW,192,0.0,19.0,84,0.00,,,0.00,Wunderground v.1.15,2013-10-11 04:20:00,
2013-10-11 00:25:00,75.8,70.6,30.01,SSW,192,0.0,19.0,84,0.00,,,0.00,Wunderground v.1.15,2013-10-11 04:25:00,
2013-10-11 00:30:00,75.9,70.7,30.01,SSW,192,0.0,19.0,84,0.00,,,0.00,Wunderground v.1.15,2013-10-11 04:30:00,
2013-10-11 00:35:00,75.8,70.6,30.01,SSW,192,0.0,19.0,84,0.00,,,0.00,Wunderground v.1.15,2013-10-11 04:35:00,
2013-10-11 00:40:00,75.8,71.0,30.01,SSW,192,0.0,19.0,85,0.00,,,0.00,Wunderground v.1.15,2013-10-11 04:40:00,
2013-10-11 00:45:00,75.8,70.6,30.01,SSW,192,0.0,19.0,84,0.00,,,0.00,Wunderground v.1.15,2013-10-11 04:45:00,
2013-10-11 00:50:00,75.8,71.0,30.01,SSW,192,0.0,19.0,85,0.00,,,0.00,Wunderground v.1.15,2013-10-11 04:50:00,
2013-10-11 00:55:00,75.7,70.9,30.01,SSW,192,0.0,19.0,85,0.00,,,0.00,Wunderground v.1.15,2013-10-11 04:55:00,
2013-10-11 01:00:00,76.0,72.2,30.01,SSW,192,0.0,19.0,88,0.00,,,0.00,Wunderground v.1.15,2013-10-11 05:00:00,
2013-10-11 01:05:00,75.7,71.9,30.01,SSW,192,0.0,19.0,88,0.00,,,0.00,Wunderground v.1.15,2013-10-11 05:05:00,
2013-10-11 01:10:00,75.3,71.8,30.01,SSW,192,0.0,19.0,89,0.00,,,0.00,Wunderground v.1.15,2013-10-11 05:10:00,
2013-10-11 01:15:00,75.1,72.0,30.01,SSW,192,0.0,19.0,90,0.00,,,0.00,Wunderground v.1.15,2013-10-11 05:15:00,
2013-10-11 01:20:00,75.0,71.9,30.01,SSW,192,0.0,19.0,90,0.00,,,0.00,Wunderground v.1.15,2013-10-11 05:20:00,
2013-10-11 01:25:00,74.7,71.6,30.01,SSW,192,0.0,19.0,90,0.00,,,0.00,Wunderground v.1.15,2013-10-11 05:25:00,
2013-10-11 01:30:00,74.5,71.7,30.01,SSW,192,0.0,19.0,91,0.00,,,0.00,Wunderground v.1.15,2013-10-11 05:30:00,
2013-10-11 01:35:00,74.5,71.7,30.01,SSW,192,0.0,19.0,91,0.00,,,0.00,Wunderground v.1.15,2013-10-11 05:35:00,
2013-10-11 01:45:00,74.4,71.6,30.01,SSW,192,0.0,19.0,91,0.00,,,0.00,Wunderground v.1.15,2013-10-11 05:45:00,
2013-10-11 01:50:00,74.2,71.4,30.01,SSW,192,0.0,19.0,91,0.00,,,0.00,Wunderground v.1.15,2013-10-11 05:50:00,
2013-10-11 01:55:00,74.1,71.6,30.01,SSW,192,0.0,19.0,92,0.00,,,0.00,Wunderground v.1.15,2013-10-11 05:55:00,
2013-10-11 02:00:00,74.1,71.6,30.01,SSW,192,0.0,19.0,92,0.00,,,0.00,Wunderground v.1.15,2013-10-11 06:00:00,
2013-10-11 02:05:00,74.1,71.6,30.01,SSW,192,0.0,19.0,92,0.00,,,0.00,Wunderground v.1.15,2013-10-11 06:05:00,
2013-10-11 02:10:00,74.0,71.5,30.01,SSW,192,0.0,19.0,92,0.00,,,0.00,Wunderground v.1.15,2013-10-11 06:10:00,
2013-10-11 02:15:00,73.8,71.3,30.01,SSW,192,0.0,19.0,92,0.00,,,0.00,Wunderground v.1.15,2013-10-11 06:15:00,
2013-10-11 02:20:00,73.7,71.2,30.01,SSW,192,0.0,19.0,92,0.00,,,0.00,Wunderground v.1.15,2013-10-11 06:20:00,
2013-10-11 02:25:00,73.8,71.3,30.01,SSW,192,0.0,19.0,92,0.00,,,0.00,Wunderground v.1.15,2013-10-11 06:25:00,
2013-10-11 02:30:00,73.9,71.4,30.01,SSW,192,0.0,19.0,92,0.00,,,0.00,Wunderground v.1.15,2013-10-11 06:30:00,
2013-10-11 02:35:00,74.0,71.8,30.01,SSW,192,0.0,19.0,93,0.00,,,0.00,Wunderground v.1.15,2013-10-11 06:35:00,
2013-10-11 02:40:00,73.9,71.4,30.01,SSW,192,0.0,19.0,92,0.00,,,0.00,Wunderground v.1.15,2013-10-11 06:40:00,
2013-10-11 02:50:00,73.8,71.6,30.01,SSW,192,0.0,19.0,93,0.00,,,0.00,Wunderground v.1.15,2013-10-11 06:50:00,
2013-10-11 02:55:00,73.9,71.7,30.00,SSW,192,0.0,19.0,93,0.00,,,0.00,Wunderground v.1.15,2013-10-11 06:55:00,
2013-10-11 03:00:00,73.9,71.7,30.00,SSW,192,0.0,19.0,93,0.00,,,0.00,Wunderground v.1.15,2013-10-11 07:00:00,
2013-10-11 03:05:00,73.9,71.7,30.00,SSW,192,0.0,19.0,93,0.00,,,0.00,Wunderground v.1.15,2013-10-11 07:05:00,
2013-10-11 03:10:00,74.0,72.2,30.00,SSW,192,0.0,19.0,94,0.00,,,0.00,Wunderground v.1.15,2013-10-11 07:10:00,
2013-10-11 03:20:00,73.8,72.0,30.00,SSW,192,0.0,19.0,94,0.00,,,0.00,Wunderground v.1.15,2013-10-11 07:20:00,
2013-10-11 03:25:00,73.9,72.1,30.00,SSW,192,0.0,19.0,94,0.00,,,0.00,Wunderground v.1.15,2013-10-11 07:25:00,
2013-10-11 03:30:00,73.8,72.0,30.00,SSW,192,0.0,19.0,94,0.00,,,0.00,Wunderground v.1.15,2013-10-11 07:30:00,
2013-10-11 03:35:00,73.7,72.2,30.00,SSW,192,0.0,19.0,95,0.00,,,0.00,Wunderground v.1.15,2013-10-11 07:35:00,
2013-10-11 03:40:00,73.7,72.2,30.00,SSW,192,0.0,19.0,95,0.00,,,0.00,Wunderground v.1.15,2013-10-11 07:40:00,
2013-10-11 03:45:00,73.8,72.3,30.00,SSW,192,0.0,19.0,95,0.00,,,0.00,Wunderground v.1.15,2013-10-11 07:45:00,
2013-10-11 03:50:00,73.8,72.3,30.00,SSW,192,0.0,19.0,95,0.00,,,0.00,Wunderground v.1.15,2013-10-11 07:50:00,
2013-10-11 03:55:00,73.8,72.3,30.00,SSW,192,0.0,19.0,95,0.00,,,0.00,Wunderground v.1.15,2013-10-11 07:55:00,
2013-10-11 04:00:00,73.7,72.2,30.00,SSW,192,0.0,19.0,95,0.00,,,0.00,Wunderground v.1.15,2013-10-11 08:00:00,
2013-10-11 04:05:00,73.8,72.3,29.99,SSW,192,0.0,19.0,95,0.00,,,0.00,Wunderground v.1.15,2013-10-11 08:05:00,
2013-10-11 04:10:00,73.8,72.3,30.00,SSW,192,0.0,19.0,95,0.00,,,0.00,Wunderground v.1.15,2013-10-11 08:10:00,
2013-10-11 04:20:00,73.8,72.3,30.00,SSW,192,0.0,19.0,95,0.00,,,0.00,Wunderground v.1.15,2013-10-11 08:20:00,
2013-10-11 04:25:00,73.8,72.3,29.99,SSW,192,0.0,19.0,95,0.00,,,0.00,Wunderground v.1.15,2013-10-11 08:25:00,
2013-10-11 04:30:00,73.8,72.6,30.00,SSE,154,0.0,19.0,96,0.00,,,0.00,Wunderground v.1.15,2013-10-11 08:30:00,
2013-10-11 04:35:00,73.8,72.6,30.00,SSE,154,0.0,19.0,96,0.00,,,0.00,Wunderground v.1.15,2013-10-11 08:35:00,
2013-10-11 04:40:00,73.7,72.5,30.00,SSE,154,0.0,19.0,96,0.00,,,0.00,Wunderground v.1.15,2013-10-11 08:40:00,
2013-10-11 04:45:00,73.6,72.4,30.00,SSE,154,0.0,19.0,96,0.00,,,0.00,Wunderground v.1.15,2013-10-11 08:45:00,
2013-10-11 04:50:00,73.5,72.0,30.00,SSE,154,0.0,19.0,95,0.00,,,0.00,Wunderground v.1.15,2013-10-11 08:50:00,
2013-10-11 04:55:00,73.7,72.5,30.00,East,98,2.0,19.0,96,0.00,,,0.00,Wunderground v.1.15,2013-10-11 08:55:00,
2013-10-11 05:00:00,73.8,72.6,30.00,East,95,4.0,19.0,96,0.00,,,0.00,Wunderground v.1.15,2013-10-11 09:00:00,
2013-10-11 05:05:00,73.9,72.7,30.00,East,93,6.0,19.0,96,0.00,,,0.00,Wunderground v.1.15,2013-10-11 09:05:00,
2013-10-11 05:10:00,74.0,72.8,30.00,East,92,5.0,19.0,96,0.00,,,0.00,Wunderground v.1.15,2013-10-11 09:10:00,
2013-10-11 05:15:00,73.9,72.7,30.00,East,92,5.0,19.0,96,0.00,,,0.00,Wunderground v.1.15,2013-10-11 09:15:00,
2013-10-11 05:20:00,73.9,72.7,30.00,East,92,5.0,19.0,96,0.00,,,0.00,Wunderground v.1.15,2013-10-11 09:20:00,
2013-10-11 05:25:00,74.0,72.8,30.00,East,92,5.0,19.0,96,0.00,,,0.00,Wunderground v.1.15,2013-10-11 09:25:00,
2013-10-11 05:30:00,74.1,72.9,30.00,East,91,5.0,5.0,96,0.00,,,0.00,Wunderground v.1.15,2013-10-11 09:30:00,
2013-10-11 05:35:00,74.1,72.9,30.00,East,89,5.0,19.0,96,0.00,,,0.00,Wunderground v.1.15,2013-10-11 09:35:00,
2013-10-11 05:40:00,74.2,73.0,30.00,ENE,78,5.0,19.0,96,0.00,,,0.00,Wunderground v.1.15,2013-10-11 09:40:00,
2013-10-11 05:45:00,74.2,73.3,30.00,ENE,63,6.0,19.0,97,0.00,,,0.00,Wunderground v.1.15,2013-10-11 09:45:00,
2013-10-11 05:50:00,74.2,73.0,30.00,ENE,58,7.0,19.0,96,0.00,,,0.00,Wunderground v.1.15,2013-10-11 09:50:00,
2013-10-11 05:55:00,74.2,73.0,30.01,ENE,61,7.0,19.0,96,0.00,,,0.00,Wunderground v.1.15,2013-10-11 09:55:00,
2013-10-11 06:00:00,74.1,72.9,30.01,ENE,63,7.0,19.0,96,0.00,,,0.00,Wunderground v.1.15,2013-10-11 10:00:00,
2013-10-11 06:05:00,74.0,72.5,30.01,ENE,62,7.0,19.0,95,0.00,,,0.00,Wunderground v.1.15,2013-10-11 10:05:00,
2013-10-11 06:10:00,74.0,72.5,30.01,ENE,60,7.0,19.0,95,0.00,,,0.00,Wunderground v.1.15,2013-10-11 10:10:00,
2013-10-11 06:15:00,74.1,72.6,30.01,ENE,62,7.0,19.0,95,0.00,,,0.00,Wunderground v.1.15,2013-10-11 10:15:00,
2013-10-11 06:20:00,74.2,72.4,30.01,ENE,61,7.0,19.0,94,0.00,,,0.00,Wunderground v.1.15,2013-10-11 10:20:00,
2013-10-11 06:25:00,74.2,72.7,30.01,ENE,62,7.0,19.0,95,0.00,,,0.00,Wunderground v.1.15,2013-10-11 10:25:00,
2013-10-11 06:35:00,74.1,72.6,30.01,ENE,60,9.0,19.0,95,0.00,,,0.00,Wunderground v.1.15,2013-10-11 10:35:00,
2013-10-11 06:40:00,73.9,72.1,30.01,ENE,61,9.0,9.0,94,0.00,,,0.00,Wunderground v.1.15,2013-10-11 10:40:00,
2013-10-11 06:45:00,73.9,72.1,30.01,ENE,63,8.0,11.0,94,0.00,,,0.00,Wunderground v.1.15,2013-10-11 10:45:00,
2013-10-11 06:50:00,74.0,72.2,30.01,NE,55,9.0,19.0,94,0.00,,,0.00,Wunderground v.1.15,2013-10-11 10:50:00,
2013-10-11 06:55:00,74.0,72.2,30.01,ENE,61,10.0,19.0,94,0.00,,,0.00,Wunderground v.1.15,2013-10-11 10:55:00,
2013-10-11 07:00:00,74.0,72.2,30.01,ENE,60,9.0,9.0,94,0.00,,,0.00,Wunderground v.1.15,2013-10-11 11:00:00,
2013-10-11 07:05:00,74.0,71.8,30.01,ENE,63,9.0,19.0,93,0.00,,,0.00,Wunderground v.1.15,2013-10-11 11:05:00,
2013-10-11 07:10:00,73.9,71.7,30.01,ENE,62,9.0,19.0,93,0.00,,,0.00,Wunderground v.1.15,2013-10-11 11:10:00,
2013-10-11 07:20:00,74.1,71.9,30.01,ENE,63,10.0,19.0,93,0.00,,,0.00,Wunderground v.1.15,2013-10-11 11:20:00,
2013-10-11 07:25:00,74.1,72.3,30.01,ENE,63,10.0,19.0,94,0.00,,,0.00,Wunderground v.1.15,2013-10-11 11:25:00,
2013-10-11 07:35:00,73.8,72.0,30.02,ENE,61,9.0,19.0,94,0.00,,,0.00,Wunderground v.1.15,2013-10-11 11:35:00,
2013-10-11 07:40:00,73.8,72.0,30.02,ENE,59,8.0,19.0,94,0.00,,,0.00,Wunderground v.1.15,2013-10-11 11:40:00,
2013-10-11 07:45:00,73.8,71.6,30.02,ENE,59,8.0,19.0,93,0.00,,,0.00,Wunderground v.1.15,2013-10-11 11:45:00,
2013-10-11 07:50:00,73.9,71.7,30.02,ENE,59,8.0,19.0,93,0.00,,,0.00,Wunderground v.1.15,2013-10-11 11:50:00,
2013-10-11 07:55:00,73.9,71.7,30.02,ENE,58,9.0,19.0,93,0.00,,,0.00,Wunderground v.1.15,2013-10-11 11:55:00,
2013-10-11 08:00:00,73.9,72.1,30.02,NE,50,10.0,19.0,94,0.00,,,0.00,Wunderground v.1.15,2013-10-11 12:00:00,
2013-10-11 08:05:00,73.8,71.6,30.02,NE,53,10.0,19.0,93,0.00,,,0.00,Wunderground v.1.15,2013-10-11 12:05:00,
2013-10-11 08:10:00,73.9,72.1,30.02,NE,53,11.0,19.0,94,0.00,,,0.00,Wunderground v.1.15,2013-10-11 12:10:00,
2013-10-11 08:15:00,73.9,71.7,30.02,ENE,57,11.0,19.0,93,0.00,,,0.00,Wunderground v.1.15,2013-10-11 12:15:00,
2013-10-11 08:20:00,73.9,71.7,30.03,NE,51,10.0,19.0,93,0.00,,,0.00,Wunderground v.1.15,2013-10-11 12:20:00,
2013-10-11 08:25:00,73.9,71.7,30.03,NE,53,10.0,19.0,93,0.00,,,0.00,Wunderground v.1.15,2013-10-11 12:25:00,
2013-10-11 08:30:00,74.1,71.9,30.03,NE,47,11.0,19.0,93,0.00,,,0.00,Wunderground v.1.15,2013-10-11 12:30:00,
2013-10-11 08:35:00,74.1,71.9,30.03,NE,44,11.0,19.0,93,0.00,,,0.00,Wunderground v.1.15,2013-10-11 12:35:00,
2013-10-11 08:40:00,74.1,71.9,30.03,NE,43,10.0,19.0,93,0.00,,,0.00,Wunderground v.1.15,2013-10-11 12:40:00,
2013-10-11 08:45:00,74.0,71.8,30.03,ENE,59,11.0,19.0,93,0.00,,,0.00,Wunderground v.1.15,2013-10-11 12:45:00,
2013-10-11 08:50:00,74.0,71.5,30.04,NE,56,12.0,19.0,92,0.00,,,0.00,Wunderground v.1.15,2013-10-11 12:50:00,
2013-10-11 08:55:00,74.1,71.6,30.04,NE,54,13.0,19.0,92,0.00,,,0.00,Wunderground v.1.15,2013-10-11 12:55:00,
2013-10-11 09:00:00,74.1,71.6,30.04,NE,56,12.0,12.0,92,0.00,,,0.00,Wunderground v.1.15,2013-10-11 13:00:00,
2013-10-11 09:05:00,74.0,71.5,30.05,ENE,59,12.0,19.0,92,0.00,,,0.00,Wunderground v.1.15,2013-10-11 13:05:00,
2013-10-11 09:10:00,74.2,72.0,30.05,ENE,63,11.0,19.0,93,0.00,,,0.00,Wunderground v.1.15,2013-10-11 13:10:00,
2013-10-11 09:15:00,74.1,71.6,30.05,ENE,63,11.0,19.0,92,0.00,,,0.00,Wunderground v.1.15,2013-10-11 13:15:00,
2013-10-11 09:20:00,74.1,71.6,30.05,ENE,61,11.0,19.0,92,0.00,,,0.00,Wunderground v.1.15,2013-10-11 13:20:00,
2013-10-11 09:25:00,73.9,71.4,30.05,ENE,65,11.0,19.0,92,0.00,,,0.00,Wunderground v.1.15,2013-10-11 13:25:00,
2013-10-11 09:30:00,73.9,71.4,30.06,NE,55,11.0,19.0,92,0.00,,,0.00,Wunderground v.1.15,2013-10-11 13:30:00,
2013-10-11 09:35:00,73.8,71.3,30.06,ENE,68,11.0,19.0,92,0.00,,,0.00,Wunderground v.1.15,2013-10-11 13:35:00,
2013-10-11 09:40:00,73.8,71.6,30.06,ENE,60,11.0,19.0,93,0.00,,,0.00,Wunderground v.1.15,2013-10-11 13:40:00,
2013-10-11 09:45:00,74.0,71.8,30.06,NE,55,11.0,19.0,93,0.00,,,0.00,Wunderground v.1.15,2013-10-11 13:45:00,
2013-10-11 09:50:00,74.0,71.5,30.06,ENE,63,11.0,19.0,92,0.00,,,0.00,Wunderground v.1.15,2013-10-11 13:50:00,
2013-10-11 09:55:00,74.0,71.5,30.06,ENE,64,12.0,19.0,92,0.00,,,0.00,Wunderground v.1.15,2013-10-11 13:55:00,
2013-10-11 10:00:00,74.0,71.5,30.06,ENE,65,11.0,19.0,92,0.00,,,0.00,Wunderground v.1.15,2013-10-11 14:00:00,
2013-10-11 10:05:00,74.3,71.8,30.06,ENE,65,11.0,19.0,92,0.00,,,0.00,Wunderground v.1.15,2013-10-11 14:05:00,
2013-10-11 10:10:00,74.3,71.8,30.06,NE,55,11.0,19.0,92,0.00,,,0.00,Wunderground v.1.15,2013-10-11 14:10:00,
2013-10-11 10:15:00,74.4,71.9,30.06,ENE,57,12.0,19.0,92,0.00,,,0.00,Wunderground v.1.15,2013-10-11 14:15:00,
2013-10-11 10:20:00,74.4,71.9,30.06,NE,54,12.0,19.0,92,0.00,,,0.00,Wunderground v.1.15,2013-10-11 14:20:00,
2013-10-11 10:25:00,74.4,71.6,30.06,NE,55,13.0,19.0,91,0.00,,,0.00,Wunderground v.1.15,2013-10-11 14:25:00,
2013-10-11 10:30:00,74.4,71.6,30.06,NE,53,13.0,19.0,91,0.00,,,0.00,Wunderground v.1.15,2013-10-11 14:30:00,
2013-10-11 10:35:00,74.5,71.7,30.06,NE,50,13.0,19.0,91,0.00,,,0.00,Wunderground v.1.15,2013-10-11 14:35:00,
2013-10-11 10:40:00,74.5,71.7,30.06,ENE,62,13.0,13.0,91,0.00,,,0.00,Wunderground v.1.15,2013-10-11 14:40:00,
2013-10-11 10:50:00,74.6,71.8,30.06,ENE,61,12.0,19.0,91,0.00,,,0.00,Wunderground v.1.15,2013-10-11 14:50:00,
2013-10-11 10:55:00,74.8,72.0,30.06,ENE,71,12.0,19.0,91,0.00,,,0.00,Wunderground v.1.15,2013-10-11 14:55:00,
2013-10-11 11:00:00,74.8,71.7,30.06,ENE,60,12.0,19.0,90,0.00,,,0.00,Wunderground v.1.15,2013-10-11 15:00:00,
2013-10-11 11:10:00,74.9,71.8,30.07,ENE,60,12.0,19.0,90,0.00,,,0.00,Wunderground v.1.15,2013-10-11 15:10:00,
2013-10-11 11:15:00,75.0,71.5,30.07,ENE,65,12.0,19.0,89,0.00,,,0.00,Wunderground v.1.15,2013-10-11 15:15:00,
2013-10-11 11:25:00,75.2,71.4,30.07,ENE,59,12.0,19.0,88,0.00,,,0.00,Wunderground v.1.15,2013-10-11 15:25:00,
2013-10-11 11:30:00,75.3,71.5,30.07,NE,56,13.0,19.0,88,0.00,,,0.00,Wunderground v.1.15,2013-10-11 15:30:00,
2013-10-11 11:35:00,75.5,71.0,30.07,ENE,67,13.0,19.0,86,0.00,,,0.00,Wunderground v.1.15,2013-10-11 15:35:00,
2013-10-11 11:40:00,75.6,70.8,30.07,ENE,71,13.0,19.0,85,0.00,,,0.00,Wunderground v.1.15,2013-10-11 15:40:00,
2013-10-11 11:45:00,75.7,70.9,30.07,ENE,64,13.0,19.0,85,0.00,,,0.00,Wunderground v.1.15,2013-10-11 15:45:00,
2013-10-11 11:50:00,76.0,70.8,30.07,ENE,74,12.0,19.0,84,0.00,,,0.00,Wunderground v.1.15,2013-10-11 15:50:00,
2013-10-11 11:55:00,76.1,70.6,30.07,ENE,66,12.0,19.0,83,0.00,,,0.00,Wunderground v.1.15,2013-10-11 15:55:00,
2013-10-11 12:00:00,76.2,71.0,30.07,ENE,61,12.0,19.0,84,0.00,,,0.00,Wunderground v.1.15,2013-10-11 16:00:00,
2013-10-11 12:05:00,76.2,70.7,30.07,ENE,66,12.0,19.0,83,0.00,,,0.00,Wunderground v.1.15,2013-10-11 16:05:00,
2013-10-11 12:10:00,76.4,70.9,30.07,ENE,57,12.0,19.0,83,0.00,,,0.00,Wunderground v.1.15,2013-10-11 16:10:00,
2013-10-11 12:15:00,76.5,71.3,30.07,NE,52,13.0,19.0,84,0.00,,,0.00,Wunderground v.1.15,2013-10-11 16:15:00,
2013-10-11 12:20:00,76.4,71.2,30.07,ENE,60,12.0,12.0,84,0.00,,,0.00,Wunderground v.1.15,2013-10-11 16:20:00,
2013-10-11 12:25:00,76.6,71.4,30.07,NE,56,12.0,19.0,84,0.00,,,0.00,Wunderground v.1.15,2013-10-11 16:25:00,
2013-10-11 12:30:00,76.6,71.7,30.07,NE,51,11.0,19.0,85,0.00,,,0.00,Wunderground v.1.15,2013-10-11 16:30:00,
2013-10-11 12:35:00,76.6,71.7,30.06,ENE,63,10.0,19.0,85,0.00,,,0.00,Wunderground v.1.15,2013-10-11 16:35:00,
2013-10-11 12:40:00,76.7,71.5,30.06,NE,44,10.0,10.0,84,0.00,,,0.00,Wunderground v.1.15,2013-10-11 16:40:00,
2013-10-11 12:45:00,76.7,71.8,30.06,NE,50,10.0,11.0,85,0.00,,,0.00,Wunderground v.1.15,2013-10-11 16:45:00,
2013-10-11 12:50:00,76.7,72.2,30.06,NE,49,11.0,19.0,86,0.00,,,0.00,Wunderground v.1.15,2013-10-11 16:50:00,
2013-10-11 12:55:00,76.7,71.8,30.06,NE,54,11.0,19.0,85,0.00,,,0.00,Wunderground v.1.15,2013-10-11 16:55:00,
2013-10-11 13:05:00,76.9,71.3,30.06,NE,54,9.0,19.0,83,0.00,,,0.00,Wunderground v.1.15,2013-10-11 17:05:00,
2013-10-11 13:10:00,77.1,71.5,30.06,ENE,61,8.0,8.0,83,0.00,,,0.00,Wunderground v.1.15,2013-10-11 17:10:00,
2013-10-11 13:15:00,77.3,71.7,30.06,ENE,61,7.0,19.0,83,0.00,,,0.00,Wunderground v.1.15,2013-10-11 17:15:00,
2013-10-11 13:20:00,77.3,71.7,30.05,ENE,58,7.0,19.0,83,0.00,,,0.00,Wunderground v.1.15,2013-10-11 17:20:00,
2013-10-11 13:25:00,77.4,71.8,30.05,NE,54,6.0,19.0,83,0.00,,,0.00,Wunderground v.1.15,2013-10-11 17:25:00,
2013-10-11 13:30:00,77.7,72.1,30.05,ENE,69,6.0,6.0,83,0.00,,,0.00,Wunderground v.1.15,2013-10-11 17:30:00,
2013-10-11 13:35:00,78.1,71.8,30.05,ESE,112,6.0,19.0,81,0.00,,,0.00,Wunderground v.1.15,2013-10-11 17:35:00,
2013-10-11 13:45:00,78.6,71.5,30.04,ESE,113,9.0,11.0,79,0.00,,,0.00,Wunderground v.1.15,2013-10-11 17:45:00,
2013-10-11 13:50:00,78.4,71.7,30.04,ESE,119,9.0,9.0,80,0.00,,,0.00,Wunderground v.1.15,2013-10-11 17:50:00,
2013-10-11 13:55:00,78.4,71.3,30.04,ESE,121,9.0,19.0,79,0.00,,,0.00,Wunderground v.1.15,2013-10-11 17:55:00,
2013-10-11 14:00:00,78.5,71.8,30.04,ESE,120,9.0,19.0,80,0.00,,,0.00,Wunderground v.1.15,2013-10-11 18:00:00,
2013-10-11 14:05:00,78.6,72.3,30.03,SE,127,8.0,19.0,81,0.00,,,0.00,Wunderground v.1.15,2013-10-11 18:05:00,
2013-10-11 14:10:00,78.5,72.5,30.03,SE,133,9.0,19.0,82,0.00,,,0.00,Wunderground v.1.15,2013-10-11 18:10:00,
2013-10-11 14:15:00,78.6,72.3,30.03,SE,128,9.0,19.0,81,0.00,,,0.00,Wunderground v.1.15,2013-10-11 18:15:00,
2013-10-11 14:20:00,78.5,72.5,30.03,SE,126,8.0,19.0,82,0.00,,,0.00,Wunderground v.1.15,2013-10-11 18:20:00,
2013-10-11 14:25:00,78.2,71.9,30.02,SE,129,9.0,19.0,81,0.00,,,0.00,Wunderground v.1.15,2013-10-11 18:25:00,
2013-10-11 14:30:00,78.2,72.3,30.02,SSE,148,10.0,10.0,82,0.00,,,0.00,Wunderground v.1.15,2013-10-11 18:30:00,
2013-10-11 14:35:00,78.6,72.6,30.02,SE,128,8.0,19.0,82,0.00,,,0.00,Wunderground v.1.15,2013-10-11 18:35:00,
2013-10-11 14:40:00,78.7,72.7,30.02,ESE,115,7.0,19.0,82,0.00,,,0.00,Wunderground v.1.15,2013-10-11 18:40:00,
2013-10-11 14:45:00,78.5,72.5,30.02,South,169,8.0,19.0,82,0.00,,,0.00,Wunderground v.1.15,2013-10-11 18:45:00,
2013-10-11 14:50:00,78.8,72.8,30.02,ESE,121,8.0,19.0,82,0.00,,,0.00,Wunderground v.1.15,2013-10-11 18:50:00,
2013-10-11 14:55:00,78.6,73.0,30.02,SSE,150,8.0,19.0,83,0.00,,,0.00,Wunderground v.1.15,2013-10-11 18:55:00,
2013-10-11 15:05:00,78.3,72.7,30.01,SE,126,10.0,19.0,83,0.00,,,0.00,Wunderground v.1.15,2013-10-11 19:05:00,
2013-10-11 15:10:00,78.2,72.6,30.01,SE,130,11.0,11.0,83,0.00,,,0.00,Wunderground v.1.15,2013-10-11 19:10:00,
2013-10-11 15:15:00,78.2,73.0,30.01,SSE,157,10.0,13.0,84,0.00,,,0.00,Wunderground v.1.15,2013-10-11 19:15:00,
2013-10-11 15:20:00,78.6,73.0,30.01,SE,131,9.0,19.0,83,0.00,,,0.00,Wunderground v.1.15,2013-10-11 19:20:00,
2013-10-11 15:25:00,78.5,73.3,30.01,SE,126,9.0,19.0,84,0.00,,,0.00,Wunderground v.1.15,2013-10-11 19:25:00,
2013-10-11 15:30:00,78.3,73.1,30.01,SE,126,11.0,19.0,84,0.00,,,0.00,Wunderground v.1.15,2013-10-11 19:30:00,
2013-10-11 15:35:00,78.3,73.1,30.00,SSE,165,11.0,19.0,84,0.00,,,0.00,Wunderground v.1.15,2013-10-11 19:35:00,
2013-10-11 15:40:00,78.9,73.3,30.00,SE,139,9.0,19.0,83,0.00,,,0.00,Wunderground v.1.15,2013-10-11 19:40:00,
2013-10-11 15:45:00,79.0,73.0,30.00,ESE,123,9.0,19.0,82,0.00,,,0.00,Wunderground v.1.15,2013-10-11 19:45:00,
2013-10-11 15:50:00,79.0,73.4,30.00,ESE,119,9.0,19.0,83,0.00,,,0.00,Wunderground v.1.15,2013-10-11 19:50:00,
2013-10-11 15:55:00,78.8,73.2,30.00,South,190,9.0,19.0,83,0.00,,,0.00,Wunderground v.1.15,2013-10-11 19:55:00,
2013-10-11 16:00:00,79.4,73.8,30.00,South,184,8.0,8.0,83,0.00,,,0.00,Wunderground v.1.15,2013-10-11 20:00:00,
2013-10-11 16:05:00,79.8,73.8,30.00,SE,146,8.0,19.0,82,0.00,,,0.00,Wunderground v.1.15,2013-10-11 20:05:00,
2013-10-11 16:10:00,79.7,73.7,30.00,SE,142,9.0,19.0,82,0.00,,,0.00,Wunderground v.1.15,2013-10-11 20:10:00,
2013-10-11 16:15:00,79.8,73.8,30.00,South,190,8.0,19.0,82,0.00,,,0.00,Wunderground v.1.15,2013-10-11 20:15:00,
2013-10-11 16:20:00,79.6,73.6,30.00,South,189,9.0,9.0,82,0.00,,,0.00,Wunderground v.1.15,2013-10-11 20:20:00,
2013-10-11 16:25:00,79.9,73.9,30.00,SSE,160,8.0,11.0,82,0.00,,,0.00,Wunderground v.1.15,2013-10-11 20:25:00,
2013-10-11 16:30:00,79.8,74.2,30.00,South,180,8.0,19.0,83,0.00,,,0.00,Wunderground v.1.15,2013-10-11 20:30:00,
2013-10-11 16:35:00,80.2,74.6,30.00,South,170,8.0,19.0,83,0.00,,,0.00,Wunderground v.1.15,2013-10-11 20:35:00,
2013-10-11 16:40:00,80.2,74.2,30.00,SSE,157,7.0,19.0,82,0.00,,,0.00,Wunderground v.1.15,2013-10-11 20:40:00,
2013-10-11 16:45:00,80.3,74.3,29.99,South,171,7.0,19.0,82,0.00,,,0.00,Wunderground v.1.15,2013-10-11 20:45:00,
2013-10-11 16:50:00,80.5,74.5,29.99,SSW,192,6.0,6.0,82,0.00,,,0.00,Wunderground v.1.15,2013-10-11 20:50:00,
2013-10-11 16:55:00,80.7,74.7,29.99,South,191,6.0,19.0,82,0.00,,,0.00,Wunderground v.1.15,2013-10-11 20:55:00,
2013-10-11 17:00:00,80.9,74.5,29.99,South,175,7.0,19.0,81,0.00,,,0.00,Wunderground v.1.15,2013-10-11 21:00:00,
2013-10-11 17:05:00,80.6,74.2,29.99,SSE,163,8.0,19.0,81,0.00,,,0.00,Wunderground v.1.15,2013-10-11 21:05:00,
2013-10-11 17:10:00,80.3,73.9,29.99,South,177,8.0,19.0,81,0.00,,,0.00,Wunderground v.1.15,2013-10-11 21:10:00,
2013-10-11 17:15:00,80.5,72.6,29.99,South,177,9.0,19.0,77,0.00,,,0.00,Wunderground v.1.15,2013-10-11 21:15:00,
2013-10-11 17:25:00,81.1,72.4,29.98,SSW,198,9.0,19.0,75,0.00,,,0.00,Wunderground v.1.15,2013-10-11 21:25:00,
2013-10-11 17:30:00,81.2,72.5,29.98,South,173,9.0,9.0,75,0.00,,,0.00,Wunderground v.1.15,2013-10-11 21:30:00,
2013-10-11 17:35:00,81.1,72.0,29.98,South,184,9.0,12.0,74,0.00,,,0.00,Wunderground v.1.15,2013-10-11 21:35:00,
2013-10-11 17:40:00,80.9,71.8,29.98,South,187,8.0,19.0,74,0.00,,,0.00,Wunderground v.1.15,2013-10-11 21:40:00,
2013-10-11 17:45:00,80.8,72.1,29.98,SSW,195,8.0,19.0,75,0.00,,,0.00,Wunderground v.1.15,2013-10-11 21:45:00,
2013-10-11 17:50:00,80.9,72.2,29.98,South,171,8.0,8.0,75,0.00,,,0.00,Wunderground v.1.15,2013-10-11 21:50:00,
2013-10-11 17:55:00,80.7,72.0,29.98,SSE,167,7.0,19.0,75,0.00,,,0.00,Wunderground v.1.15,2013-10-11 21:55:00,
2013-10-11 18:00:00,80.5,71.8,29.98,South,169,7.0,7.0,75,0.00,,,0.00,Wunderground v.1.15,2013-10-11 22:00:00,
2013-10-11 18:05:00,80.3,71.6,29.97,South,189,8.0,8.0,75,0.00,,,0.00,Wunderground v.1.15,2013-10-11 22:05:00,
2013-10-11 18:10:00,80.3,72.0,29.97,SSW,193,8.0,8.0,76,0.00,,,0.00,Wunderground v.1.15,2013-10-11 22:10:00,
2013-10-11 18:15:00,80.3,72.0,29.98,South,184,7.0,19.0,76,0.00,,,0.00,Wunderground v.1.15,2013-10-11 22:15:00,
2013-10-11 18:20:00,80.1,71.8,29.98,SSW,197,8.0,19.0,76,0.00,,,0.00,Wunderground v.1.15,2013-10-11 22:20:00,
2013-10-11 18:25:00,80.0,71.8,29.97,South,185,7.0,19.0,76,0.00,,,0.00,Wunderground v.1.15,2013-10-11 22:25:00,
2013-10-11 18:30:00,79.9,72.0,29.98,SSW,195,6.0,19.0,77,0.00,,,0.00,Wunderground v.1.15,2013-10-11 22:30:00,
2013-10-11 18:35:00,79.7,71.8,29.98,South,184,6.0,19.0,77,0.00,,,0.00,Wunderground v.1.15,2013-10-11 22:35:00,
2013-10-11 18:40:00,79.6,71.8,29.98,South,186,6.0,19.0,77,0.00,,,0.00,Wunderground v.1.15,2013-10-11 22:40:00,
2013-10-11 18:45:00,79.3,71.5,29.98,South,186,7.0,19.0,77,0.00,,,0.00,Wunderground v.1.15,2013-10-11 22:45:00,
2013-10-11 18:50:00,78.9,71.5,29.97,South,184,7.0,7.0,78,0.00,,,0.00,Wunderground v.1.15,2013-10-11 22:50:00,
2013-10-11 18:55:00,78.5,71.1,29.98,South,190,6.0,19.0,78,0.00,,,0.00,Wunderground v.1.15,2013-10-11 22:55:00,
2013-10-11 19:00:00,78.2,70.4,29.98,South,188,6.0,19.0,77,0.00,,,0.00,Wunderground v.1.15,2013-10-11 23:00:00,
2013-10-11 19:05:00,78.1,70.7,29.98,South,187,6.0,19.0,78,0.00,,,0.00,Wunderground v.1.15,2013-10-11 23:05:00,
2013-10-11 19:10:00,77.9,70.9,29.98,SSW,194,6.0,6.0,79,0.00,,,0.00,Wunderground v.1.15,2013-10-11 23:10:00,
2013-10-11 19:15:00,77.7,70.7,29.98,South,191,6.0,9.0,79,0.00,,,0.00,Wunderground v.1.15,2013-10-11 23:15:00,
2013-10-11 19:20:00,77.7,71.0,29.98,South,188,6.0,19.0,80,0.00,,,0.00,Wunderground v.1.15,2013-10-11 23:20:00,
2013-10-11 19:25:00,77.5,70.8,29.98,SSW,199,6.0,19.0,80,0.00,,,0.00,Wunderground v.1.15,2013-10-11 23:25:00,
2013-10-11 19:35:00,77.4,70.4,29.98,SSW,196,7.0,19.0,79,0.00,,,0.00,Wunderground v.1.15,2013-10-11 23:35:00,
2013-10-11 19:40:00,77.4,70.7,29.98,South,188,6.0,6.0,80,0.00,,,0.00,Wunderground v.1.15,2013-10-11 23:40:00,
2013-10-11 19:45:00,77.2,70.2,29.98,SSW,192,6.0,9.0,79,0.00,,,0.00,Wunderground v.1.15,2013-10-11 23:45:00,
2013-10-11 19:50:00,77.3,70.6,29.98,SSW,193,7.0,19.0,80,0.00,,,0.00,Wunderground v.1.15,2013-10-11 23:50:00,
2013-10-11 19:55:00,77.4,70.7,29.98,South,191,7.0,19.0,80,0.00,,,0.00,Wunderground v.1.15,2013-10-11 23:55:00,
2013-10-11 20:00:00,77.4,70.7,29.98,SSW,195,7.0,7.0,80,0.00,,,0.00,Wunderground v.1.15,2013-10-12 00:00:00,
2013-10-11 20:05:00,77.3,70.6,29.99,South,187,7.0,19.0,80,0.00,,,0.00,Wunderground v.1.15,2013-10-12 00:05:00,
2013-10-11 20:10:00,77.2,70.9,29.99,SSW,209,6.0,19.0,81,0.00,,,0.00,Wunderground v.1.15,2013-10-12 00:10:00,
2013-10-11 20:20:00,77.4,70.7,29.99,SSW,205,7.0,19.0,80,0.00,,,0.00,Wunderground v.1.15,2013-10-12 00:20:00,
2013-10-11 20:25:00,77.5,71.2,29.99,SSW,202,7.0,19.0,81,0.00,,,0.00,Wunderground v.1.15,2013-10-12 00:25:00,
2013-10-11 20:35:00,77.5,70.8,29.99,SSW,198,8.0,19.0,80,0.00,,,0.00,Wunderground v.1.15,2013-10-12 00:35:00,
2013-10-11 20:40:00,77.3,70.6,29.99,SSW,198,7.0,19.0,80,0.00,,,0.00,Wunderground v.1.15,2013-10-12 00:40:00,
2013-10-11 20:45:00,77.2,70.9,29.99,SSW,196,6.0,19.0,81,0.00,,,0.00,Wunderground v.1.15,2013-10-12 00:45:00,
2013-10-11 20:50:00,77.0,70.7,30.00,SSW,192,6.0,6.0,81,0.00,,,0.00,Wunderground v.1.15,2013-10-12 00:50:00,
2013-10-11 20:55:00,77.1,70.8,30.00,SSW,207,6.0,7.0,81,0.00,,,0.00,Wunderground v.1.15,2013-10-12 00:55:00,
2013-10-11 21:00:00,77.1,70.5,30.00,SSW,200,6.0,19.0,80,0.00,,,0.00,Wunderground v.1.15,2013-10-12 01:00:00,
2013-10-11 21:05:00,77.0,70.0,30.00,South,185,6.0,19.0,79,0.00,,,0.00,Wunderground v.1.15,2013-10-12 01:05:00,
2013-10-11 21:10:00,77.0,70.4,30.00,South,184,5.0,5.0,80,0.00,,,0.00,Wunderground v.1.15,2013-10-12 01:10:00,
2013-10-11 21:15:00,76.8,70.2,30.00,South,191,2.0,19.0,80,0.00,,,0.00,Wunderground v.1.15,2013-10-12 01:15:00,
2013-10-11 21:20:00,76.8,70.5,30.00,SSW,207,0.0,19.0,81,0.00,,,0.00,Wunderground v.1.15,2013-10-12 01:20:00,
2013-10-11 21:25:00,76.8,70.2,30.00,SSW,194,1.0,19.0,80,0.00,,,0.00,Wunderground v.1.15,2013-10-12 01:25:00,
2013-10-11 21:30:00,76.9,70.3,30.00,SSW,204,3.0,19.0,80,0.00,,,0.00,Wunderground v.1.15,2013-10-12 01:30:00,
2013-10-11 21:35:00,77.0,70.4,30.00,SSW,202,5.0,19.0,80,0.00,,,0.00,Wunderground v.1.15,2013-10-12 01:35:00,
2013-10-11 21:40:00,76.9,69.9,30.00,SSW,206,5.0,5.0,79,0.00,,,0.00,Wunderground v.1.15,2013-10-12 01:40:00,
2013-10-11 21:45:00,77.1,70.1,30.00,SSW,206,6.0,6.0,79,0.00,,,0.00,Wunderground v.1.15,2013-10-12 01:45:00,
2013-10-11 21:50:00,77.3,70.3,30.00,SSW,199,5.0,19.0,79,0.00,,,0.00,Wunderground v.1.15,2013-10-12 01:50:00,
2013-10-11 21:55:00,77.3,70.3,30.00,SSW,199,6.0,19.0,79,0.00,,,0.00,Wunderground v.1.15,2013-10-12 01:55:00,
2013-10-11 22:05:00,77.3,70.3,30.00,SSW,209,4.0,19.0,79,0.00,,,0.00,Wunderground v.1.15,2013-10-12 02:05:00,
2013-10-11 22:15:00,77.3,70.3,30.00,SSW,207,0.0,19.0,79,0.00,,,0.00,Wunderground v.1.15,2013-10-12 02:15:00,
2013-10-11 22:25:00,77.2,70.2,30.01,SSW,211,1.0,19.0,79,0.00,,,0.00,Wunderground v.1.15,2013-10-12 02:25:00,
2013-10-11 22:30:00,77.3,70.3,30.01,SSW,206,3.0,3.0,79,0.00,,,0.00,Wunderground v.1.15,2013-10-12 02:30:00,
2013-10-11 22:35:00,77.4,70.4,30.01,SSW,210,5.0,6.0,79,0.00,,,0.00,Wunderground v.1.15,2013-10-12 02:35:00,
2013-10-11 22:40:00,77.4,70.4,30.01,SW,217,5.0,5.0,79,0.00,,,0.00,Wunderground v.1.15,2013-10-12 02:40:00,
2013-10-11 22:45:00,77.4,70.4,30.01,SW,215,5.0,6.0,79,0.00,,,0.00,Wunderground v.1.15,2013-10-12 02:45:00,
2013-10-11 22:55:00,77.3,70.3,30.01,SSW,204,4.0,19.0,79,0.00,,,0.00,Wunderground v.1.15,2013-10-12 02:55:00,
2013-10-11 23:00:00,77.2,70.2,30.01,SW,214,4.0,4.0,79,0.00,,,0.00,Wunderground v.1.15,2013-10-12 03:00:00,
2013-10-11 23:05:00,77.1,70.5,30.01,SSW,209,4.0,19.0,80,0.00,,,0.00,Wunderground v.1.15,2013-10-12 03:05:00,
2013-10-11 23:10:00,77.1,70.1,30.01,SSW,203,5.0,19.0,79,0.00,,,0.00,Wunderground v.1.15,2013-10-12 03:10:00,
2013-10-11 23:15:00,77.3,70.3,30.01,SW,217,5.0,19.0,79,0.00,,,0.00,Wunderground v.1.15,2013-10-12 03:15:00,
2013-10-11 23:25:00,77.3,70.3,30.01,SW,217,5.0,19.0,79,0.00,,,0.00,Wunderground v.1.15,2013-10-12 03:25:00,
2013-10-11 23:30:00,77.4,70.4,30.01,SSW,198,5.0,19.0,79,0.00,,,0.00,Wunderground v.1.15,2013-10-12 03:30:00,
2013-10-11 23:40:00,77.2,70.5,30.01,SSW,205,5.0,5.0,80,0.00,,,0.00,Wunderground v.1.15,2013-10-12 03:40:00,
2013-10-11 23:45:00,77.2,70.5,30.01,SSW,204,6.0,8.0,80,0.00,,,0.00,Wunderground v.1.15,2013-10-12 03:45:00,
2013-10-11 23:50:00,77.1,70.5,30.01,SW,217,5.0,19.0,80,0.00,,,0.00,Wunderground v.1.15,2013-10-12 03:50:00,
2013-10-11 23:55:00,77.1,70.5,30.01,SW,220,5.0,19.0,80,0.00,,,0.00,Wunderground v.1.15,2013-10-12 03:55:00,